CCM311 LFMN-LFKC

Flight info

Callsign CCM311
Flight time 0h 25m
Altitude 15000
Route SODRI
Aircraft A320/M-SDE3FGHIRWY/LB1

Departure

Time 2026-05-07 04:27
Airport Nice-Côte d'Azur Airport (LFMN)

Arrival

Time 2026-05-07 04:52
Airport Calvi Sainte Catherine Airport (LFKC)
Time Latitude Longitude Altitude Speed Heading
2026-05-07 04:03 43.66119 7.20689 22 ft 0 kts 260°
2026-05-07 04:15 43.66121 7.20700 22 ft 4 kts 261°
2026-05-07 04:15 43.66124 7.20736 23 ft 4 kts 261°
2026-05-07 04:16 43.66132 7.20770 25 ft 4 kts 227°
2026-05-07 04:16 43.66153 7.20786 25 ft 4 kts 178°
2026-05-07 04:16 43.66163 7.20785 22 ft 1 kts 171°
2026-05-07 04:16 43.66164 7.20785 22 ft 0 kts 171°
2026-05-07 04:20 43.66153 7.20787 25 ft 6 kts 171°
2026-05-07 04:20 43.66093 7.20800 22 ft 10 kts 171°
2026-05-07 04:20 43.66027 7.20815 22 ft 9 kts 171°
2026-05-07 04:21 43.65980 7.20923 22 ft 9 kts 56°
2026-05-07 04:21 43.66018 7.20981 22 ft 9 kts 47°
2026-05-07 04:21 43.66074 7.21056 22 ft 14 kts 45°
2026-05-07 04:21 43.66149 7.21158 22 ft 16 kts 45°
2026-05-07 04:22 43.66232 7.21273 22 ft 18 kts 45°
2026-05-07 04:22 43.66293 7.21357 22 ft 11 kts 45°
2026-05-07 04:22 43.66345 7.21431 22 ft 10 kts 51°
2026-05-07 04:22 43.66375 7.21508 22 ft 9 kts 85°
2026-05-07 04:23 43.66347 7.21573 22 ft 8 kts 134°
2026-05-07 04:23 43.66323 7.21644 22 ft 10 kts 81°
2026-05-07 04:23 43.66379 7.21733 22 ft 17 kts 44°
2026-05-07 04:23 43.66480 7.21872 22 ft 22 kts 45°
2026-05-07 04:24 43.66593 7.22026 22 ft 24 kts 46°
2026-05-07 04:24 43.66702 7.22177 22 ft 17 kts 45°
2026-05-07 04:24 43.66779 7.22282 22 ft 14 kts 44°
2026-05-07 04:24 43.66818 7.22361 22 ft 8 kts 84°
2026-05-07 04:25 43.66778 7.22448 21 ft 14 kts 135°
2026-05-07 04:25 43.66710 7.22541 21 ft 13 kts 135°
2026-05-07 04:25 43.66650 7.22624 22 ft 12 kts 135°
2026-05-07 04:25 43.66595 7.22699 22 ft 11 kts 134°
2026-05-07 04:26 43.66547 7.22762 23 ft 9 kts 151°
2026-05-07 04:26 43.66492 7.22748 23 ft 11 kts 217°
2026-05-07 04:26 43.66320 7.22510 24 ft 70 kts 225°
2026-05-07 04:26 43.65807 7.21806 23 ft 135 kts 225°
2026-05-07 04:27 43.65041 7.20734 258 ft 163 kts 230°
2026-05-07 04:27 43.64254 7.19619 987 ft 162 kts 229°
2026-05-07 04:27 43.63459 7.18524 1741 ft 161 kts 228°
2026-05-07 04:27 43.62639 7.17399 2267 ft 176 kts 227°
2026-05-07 04:28 43.61707 7.16138 2627 ft 199 kts 223°
2026-05-07 04:28 43.60381 7.15341 3083 ft 222 kts 185°
2026-05-07 04:28 43.58882 7.15889 3860 ft 234 kts 155°
2026-05-07 04:28 43.57453 7.16995 4776 ft 236 kts 153°
2026-05-07 04:29 43.56023 7.18154 5641 ft 239 kts 150°
2026-05-07 04:29 43.54773 7.19716 6476 ft 246 kts 133°
2026-05-07 04:29 43.53644 7.21507 7282 ft 249 kts 134°
2026-05-07 04:29 43.52487 7.23304 8082 ft 252 kts 135°
2026-05-07 04:30 43.51308 7.25116 8895 ft 256 kts 135°
2026-05-07 04:30 43.50106 7.26954 9717 ft 259 kts 136°
2026-05-07 04:30 43.48889 7.28813 10484 ft 263 kts 136°
2026-05-07 04:30 43.47639 7.30657 11256 ft 263 kts 142°
2026-05-07 04:31 43.46156 7.32115 11815 ft 273 kts 156°
2026-05-07 04:31 43.44420 7.33423 12133 ft 296 kts 156°
2026-05-07 04:31 43.42534 7.34829 12415 ft 320 kts 155°
2026-05-07 04:31 43.40505 7.36346 12704 ft 342 kts 155°
2026-05-07 04:32 43.38383 7.37947 13332 ft 351 kts 154°
2026-05-07 04:32 43.36238 7.39580 14092 ft 354 kts 154°
2026-05-07 04:32 43.34069 7.41238 14686 ft 358 kts 154°
2026-05-07 04:32 43.31884 7.42909 14884 ft 359 kts 154°
2026-05-07 04:33 43.29706 7.44573 14939 ft 355 kts 154°
2026-05-07 04:33 43.27579 7.46196 14944 ft 353 kts 154°
2026-05-07 04:33 43.25435 7.47824 14947 ft 352 kts 155°
2026-05-07 04:33 43.23290 7.49449 14949 ft 352 kts 154°
2026-05-07 04:34 43.21144 7.51068 14948 ft 352 kts 154°
2026-05-07 04:34 43.19001 7.52686 14948 ft 352 kts 154°
2026-05-07 04:34 43.16854 7.54305 14949 ft 352 kts 154°
2026-05-07 04:34 43.14707 7.55929 14953 ft 352 kts 153°
2026-05-07 04:35 43.12731 7.57926 14949 ft 357 kts 139°
2026-05-07 04:35 43.11134 7.60549 14947 ft 361 kts 125°
2026-05-07 04:35 43.10042 7.63649 14945 ft 364 kts 110°
2026-05-07 04:35 43.09504 7.67043 14941 ft 366 kts 100°
2026-05-07 04:36 43.09098 7.70485 14942 ft 366 kts 101°
2026-05-07 04:36 43.08678 7.73922 14949 ft 367 kts 101°
2026-05-07 04:36 43.08251 7.77360 14947 ft 367 kts 101°
2026-05-07 04:36 43.07824 7.80807 14948 ft 367 kts 101°
2026-05-07 04:37 43.07415 7.84256 14946 ft 367 kts 100°
2026-05-07 04:37 43.07023 7.87706 14948 ft 367 kts 100°
2026-05-07 04:37 43.06636 7.91157 14953 ft 367 kts 100°
2026-05-07 04:37 43.06379 7.93443 14955 ft 367 kts 100°
2026-05-07 04:38 43.05859 7.98061 14950 ft 367 kts 100°
2026-05-07 04:38 43.05470 8.01468 14951 ft 367 kts 100°
2026-05-07 04:38 43.05075 8.04918 14958 ft 367 kts 100°
2026-05-07 04:38 43.04679 8.08368 14954 ft 367 kts 100°
2026-05-07 04:39 43.04281 8.11820 14958 ft 367 kts 100°
2026-05-07 04:39 43.04009 8.14149 14959 ft 367 kts 100°
2026-05-07 04:39 43.03481 8.18664 14704 ft 358 kts 100°
2026-05-07 04:39 43.03217 8.20924 14538 ft 353 kts 100°
2026-05-07 04:40 43.02831 8.24211 14295 ft 348 kts 100°
2026-05-07 04:40 43.02449 8.27465 14059 ft 346 kts 100°
2026-05-07 04:40 43.02072 8.30657 13824 ft 345 kts 100°
2026-05-07 04:40 43.01692 8.33888 13563 ft 343 kts 100°
2026-05-07 04:41 43.01317 8.37083 13261 ft 338 kts 100°
2026-05-07 04:41 43.00921 8.40236 12845 ft 336 kts 101°
2026-05-07 04:41 43.00486 8.43365 12423 ft 335 kts 102°
2026-05-07 04:41 43.00035 8.46478 11998 ft 334 kts 102°
2026-05-07 04:42 42.99576 8.49580 11572 ft 332 kts 102°
2026-05-07 04:42 42.99123 8.52671 11147 ft 331 kts 102°
2026-05-07 04:42 42.98678 8.55757 10701 ft 331 kts 102°
2026-05-07 04:42 42.98235 8.58836 10258 ft 330 kts 101°
2026-05-07 04:43 42.97801 8.61857 9947 ft 314 kts 101°
2026-05-07 04:43 42.97383 8.64755 9621 ft 308 kts 101°
2026-05-07 04:43 42.96969 8.67630 9266 ft 310 kts 101°
2026-05-07 04:43 42.96554 8.70515 8777 ft 310 kts 101°
2026-05-07 04:44 42.96142 8.73369 8319 ft 303 kts 103°
2026-05-07 04:44 42.95385 8.76031 7699 ft 299 kts 126°
2026-05-07 04:44 42.93947 8.78046 7044 ft 299 kts 149°
2026-05-07 04:44 42.92068 8.79185 6378 ft 294 kts 175°
2026-05-07 04:45 42.90072 8.79263 5699 ft 283 kts 187°
2026-05-07 04:45 42.88125 8.79151 5000 ft 277 kts 184°
2026-05-07 04:45 42.86246 8.79143 4494 ft 266 kts 182°
2026-05-07 04:45 42.84416 8.79162 4249 ft 262 kts 182°
2026-05-07 04:46 42.82608 8.79174 3990 ft 258 kts 182°
2026-05-07 04:46 42.80831 8.79182 3737 ft 252 kts 182°
2026-05-07 04:46 42.79107 8.79186 3486 ft 244 kts 182°
2026-05-07 04:46 42.77435 8.79190 3237 ft 236 kts 182°
2026-05-07 04:47 42.75814 8.79201 3051 ft 228 kts 182°
2026-05-07 04:47 42.74275 8.79213 2998 ft 213 kts 183°
2026-05-07 04:47 42.72839 8.79212 3001 ft 199 kts 183°
2026-05-07 04:47 42.71489 8.79213 2997 ft 191 kts 183°
2026-05-07 04:48 42.70171 8.79219 3004 ft 188 kts 183°
2026-05-07 04:48 42.68871 8.79232 2883 ft 185 kts 183°
2026-05-07 04:48 42.67586 8.79237 2662 ft 185 kts 182°
2026-05-07 04:48 42.66307 8.79241 2435 ft 183 kts 181°
2026-05-07 04:49 42.65037 8.79245 2190 ft 183 kts 180°
2026-05-07 04:49 42.63787 8.79257 1986 ft 173 kts 180°
2026-05-07 04:49 42.62621 8.79262 1739 ft 162 kts 180°
2026-05-07 04:49 42.61525 8.79265 1528 ft 153 kts 179°
2026-05-07 04:50 42.60491 8.79262 1314 ft 144 kts 181°
2026-05-07 04:50 42.59541 8.79272 1170 ft 133 kts 181°
2026-05-07 04:50 42.58626 8.79279 1005 ft 130 kts 181°
2026-05-07 04:50 42.57733 8.79279 822 ft 128 kts 180°
2026-05-07 04:51 42.56851 8.79281 681 ft 127 kts 179°
2026-05-07 04:51 42.55971 8.79285 549 ft 126 kts 181°
2026-05-07 04:51 42.55088 8.79285 332 ft 127 kts 178°
2026-05-07 04:51 42.54202 8.79294 205 ft 126 kts 179°
2026-05-07 04:52 42.53351 8.79301 171 ft 111 kts 179°
2026-05-07 04:52 42.52799 8.79301 206 ft 50 kts 180°
2026-05-07 04:52 42.52602 8.79302 221 ft 20 kts 180°
2026-05-07 04:52 42.52481 8.79303 229 ft 14 kts 179°
2026-05-07 04:53 42.52441 8.79270 231 ft 5 kts 250°
2026-05-07 04:53 42.52437 8.79232 231 ft 3 kts 266°
2026-05-07 04:53 42.52436 8.79203 230 ft 3 kts 267°
2026-05-07 04:53 42.52437 8.79179 230 ft 3 kts 288°
2026-05-07 04:54 42.52459 8.79167 229 ft 5 kts 354°
2026-05-07 04:54 42.52496 8.79137 226 ft 3 kts 300°
2026-05-07 04:54 42.52508 8.79106 227 ft 5 kts 299°
2026-05-07 04:54 42.52519 8.79081 225 ft 2 kts 300°
2026-05-07 04:55 42.52521 8.79076 224 ft 0 kts 300°